Terminal Aerodrome Forecast
Issued by NWS La Crosse, WI

Home | Current Version | Previous Version | Text Only | Print | Product List | Glossary On
Versions: 1 2 3 4 5 6 7 8 9 10 11 12 13 14 15 16 17 18 19 20 21 22
000
FTUS43 KARX 241731
TAFLSE
TAF
KLSE 241731Z 2418/2518 08004KT P6SM OVC020
     FM250300 07006KT 2SM -SN OVC008
     FM250400 07007KT 1 1/2SM -SN OVC003
     FM251200 04009KT 1SM -SN OVC003
     FM251700 02010KT 1SM -SN OVC008=

USA.gov is the U.S. government's official web portal to all federal, state and local government web resources and services.